TimeEST,TemperatureF,Dew PointF,Humidity,Sea Level PressureIn,VisibilityMPH,Wind Direction,Wind SpeedMPH,Gust SpeedMPH,PrecipitationIn,Events,Conditions,WindDirDegrees,DateUTC
12:14 AM,7.5,2.3,79,29.88,10.0,West,10.4,17.3,N/A,,Clear,280,2013-02-04 05:14:00
12:34 AM,7.5,2.3,79,29.88,10.0,West,13.8,20.7,N/A,,Clear,270,2013-02-04 05:34:00
12:54 AM,7.3,2.3,80,29.89,10.0,West,12.7,19.6,N/A,,Clear,280,2013-02-04 05:54:00
1:14 AM,7.3,2.3,80,29.89,10.0,West,13.8,19.6,N/A,,Clear,280,2013-02-04 06:14:00
1:34 AM,7.2,2.3,80,29.89,10.0,West,12.7,18.4,N/A,,Clear,280,2013-02-04 06:34:00
1:54 AM,6.8,2.3,82,29.89,10.0,West,12.7,19.6,N/A,,Scattered Clouds,270,2013-02-04 06:54:00
2:14 AM,6.8,2.3,82,29.89,10.0,West,15.0,20.7,N/A,,Mostly Cloudy,280,2013-02-04 07:14:00
2:34 AM,6.4,2.3,83,29.90,10.0,West,10.4,-,N/A,,Scattered Clouds,280,2013-02-04 07:34:00
2:54 AM,6.3,2.3,84,29.90,10.0,West,9.2,-,N/A,,Clear,280,2013-02-04 07:54:00
3:14 AM,5.9,1.6,82,29.91,10.0,WNW,11.5,16.1,N/A,,Clear,290,2013-02-04 08:14:00
3:34 AM,5.5,1.6,84,29.91,10.0,NW,8.1,-,N/A,,Scattered Clouds,320,2013-02-04 08:34:00
3:54 AM,5.0,1.2,84,29.91,4.0,NNW,4.6,-,N/A,Snow,Light Snow,340,2013-02-04 08:54:00
4:14 AM,5.7,1.8,84,29.91,10.0,NNW,8.1,-,N/A,Snow,Light Snow,330,2013-02-04 09:14:00
5:54 AM,6.1,2.1,84,29.92,5.0,NE,5.8,-,N/A,Snow,Light Snow,40,2013-02-04 10:54:00
6:14 AM,5.5,1.2,82,29.91,10.0,NNE,5.8,-,N/A,,Mostly Cloudy,30,2013-02-04 11:14:00
6:34 AM,5.2,0.5,81,29.91,10.0,NE,6.9,-,N/A,,Scattered Clouds,50,2013-02-04 11:34:00
6:54 AM,5.4,-0.0,78,29.92,10.0,NE,5.8,-,N/A,,Scattered Clouds,50,2013-02-04 11:54:00
7:14 AM,4.5,-0.8,79,29.92,10.0,NE,5.8,-,N/A,,Mostly Cloudy,50,2013-02-04 12:14:00
7:54 AM,4.3,-0.6,80,29.92,10.0,NE,5.8,-,N/A,,Clear,40,2013-02-04 12:54:00
8:14 AM,5.4,1.0,82,29.93,10.0,NE,4.6,-,N/A,,Clear,40,2013-02-04 13:14:00
8:34 AM,5.5,1.0,82,29.93,10.0,NE,4.6,-,N/A,,Clear,40,2013-02-04 13:34:00
8:53 AM,6.1,1.6,82,29.94,10.0,NE,6.9,-,N/A,,Scattered Clouds,40,2013-02-04 13:53:00
9:14 AM,6.3,1.4,80,29.94,10.0,NE,4.6,-,N/A,,Scattered Clouds,40,2013-02-04 14:14:00
9:34 AM,7.7,2.5,79,29.94,10.0,ENE,4.6,-,N/A,,Clear,70,2013-02-04 14:34:00
9:55 AM,8.8,2.8,77,29.94,7.0,NE,6.9,-,N/A,Snow,Light Snow,50,2013-02-04 14:55:00
10:14 AM,9.3,3.4,77,29.94,2.5,NE,6.9,-,N/A,Snow,Light Snow,50,2013-02-04 15:14:00
10:34 AM,8.8,3.9,81,29.94,2.5,ENE,4.6,-,N/A,Snow,Light Snow,70,2013-02-04 15:34:00
10:54 AM,9.5,3.9,78,29.93,1.5,NE,5.8,-,N/A,Snow,Light Snow,40,2013-02-04 15:54:00
11:14 AM,10.2,4.3,77,29.93,1.8,NE,4.6,-,N/A,Snow,Light Snow,40,2013-02-04 16:14:00
11:34 AM,10.6,4.5,76,29.93,3.0,Calm,Calm,-,N/A,Snow,Light Snow,0,2013-02-04 16:34:00
11:54 AM,11.1,4.5,75,29.93,5.0,NE,5.8,-,N/A,Snow,Light Snow,40,2013-02-04 16:54:00
12:14 PM,10.6,4.5,76,29.93,5.0,Calm,Calm,-,N/A,Snow,Light Snow,0,2013-02-04 17:14:00
12:34 PM,10.2,4.6,78,29.93,1.8,Calm,Calm,-,N/A,Snow,Light Snow,0,2013-02-04 17:34:00
12:54 PM,13.3,5.5,71,29.92,5.0,Calm,Calm,-,N/A,Snow,Light Snow,0,2013-02-04 17:54:00
1:14 PM,12.2,4.1,70,29.91,10.0,SW,4.6,-,N/A,,Scattered Clouds,230,2013-02-04 18:14:00
1:34 PM,12.2,4.5,71,29.91,10.0,SSW,4.6,-,N/A,,Clear,210,2013-02-04 18:34:00
1:54 PM,12.6,4.1,69,29.91,10.0,WSW,3.5,-,N/A,,Scattered Clouds,250,2013-02-04 18:54:00
2:14 PM,13.1,4.8,70,29.90,10.0,WSW,4.6,-,N/A,,Mostly Cloudy,240,2013-02-04 19:14:00
2:34 PM,13.1,5.0,70,29.90,10.0,SW,8.1,-,N/A,,Scattered Clouds,230,2013-02-04 19:34:00
2:54 PM,12.9,5.4,72,29.89,10.0,WSW,9.2,-,N/A,,Clear,240,2013-02-04 19:54:00
3:14 PM,12.9,5.0,71,29.89,10.0,WSW,6.9,-,N/A,,Clear,240,2013-02-04 20:14:00
3:34 PM,13.1,4.3,68,29.89,10.0,WSW,4.6,-,N/A,,Clear,250,2013-02-04 20:34:00
3:54 PM,13.3,5.0,70,29.89,10.0,WSW,6.9,-,N/A,,Clear,240,2013-02-04 20:54:00
4:14 PM,13.5,4.3,67,29.88,10.0,WSW,6.9,-,N/A,,Clear,250,2013-02-04 21:14:00
4:34 PM,13.3,3.6,65,29.88,10.0,WSW,5.8,-,N/A,,Clear,250,2013-02-04 21:34:00
4:54 PM,13.8,3.9,65,29.88,10.0,WSW,8.1,-,N/A,,Scattered Clouds,250,2013-02-04 21:54:00
5:14 PM,13.6,3.0,63,29.87,10.0,WSW,8.1,-,N/A,,Mostly Cloudy,250,2013-02-04 22:14:00
5:34 PM,12.9,2.7,64,29.87,10.0,SW,8.1,-,N/A,,Mostly Cloudy,230,2013-02-04 22:34:00
5:54 PM,12.4,3.2,67,29.87,10.0,West,6.9,-,N/A,,Mostly Cloudy,260,2013-02-04 22:54:00
6:14 PM,12.4,2.5,65,29.87,10.0,West,9.2,-,N/A,,Clear,270,2013-02-04 23:14:00
6:34 PM,12.6,2.3,64,29.87,10.0,West,10.4,-,N/A,,Scattered Clouds,270,2013-02-04 23:34:00
6:54 PM,13.5,3.2,64,29.88,10.0,West,8.1,-,N/A,,Overcast,280,2013-02-04 23:54:00
7:14 PM,13.1,3.2,65,29.88,10.0,West,11.5,-,N/A,,Overcast,280,2013-02-05 00:14:00
7:34 PM,12.2,4.1,70,29.89,10.0,WNW,6.9,-,N/A,,Overcast,300,2013-02-05 00:34:00
7:54 PM,12.0,4.1,71,29.89,10.0,West,8.1,-,N/A,,Overcast,280,2013-02-05 00:54:00
8:14 PM,11.3,3.6,71,29.90,10.0,West,8.1,-,N/A,,Overcast,280,2013-02-05 01:14:00
8:34 PM,11.1,1.4,65,29.90,10.0,West,8.1,-,N/A,,Scattered Clouds,280,2013-02-05 01:34:00
8:54 PM,10.9,2.1,68,29.90,10.0,WNW,9.2,-,N/A,,Clear,290,2013-02-05 01:54:00
9:14 PM,10.4,2.3,70,29.90,10.0,West,6.9,-,N/A,,Clear,280,2013-02-05 02:14:00
9:34 PM,10.4,3.2,73,29.89,10.0,West,6.9,-,N/A,,Clear,280,2013-02-05 02:34:00
9:54 PM,10.4,3.0,72,29.89,10.0,WNW,5.8,-,N/A,,Clear,290,2013-02-05 02:54:00
10:14 PM,10.4,2.8,72,29.89,10.0,WNW,5.8,-,N/A,,Scattered Clouds,300,2013-02-05 03:14:00
10:34 PM,10.4,1.9,69,29.88,10.0,WNW,6.9,-,N/A,,Scattered Clouds,290,2013-02-05 03:34:00
10:54 PM,10.4,1.4,67,29.88,10.0,WNW,4.6,-,N/A,,Scattered Clouds,300,2013-02-05 03:54:00
11:14 PM,11.5,0.3,61,29.87,10.0,WNW,5.8,-,N/A,,Mostly Cloudy,290,2013-02-05 04:14:00
11:34 PM,10.6,-0.2,62,29.87,10.0,West,4.6,-,N/A,,Overcast,270,2013-02-05 04:34:00
11:54 PM,7.2,0.7,75,29.87,10.0,West,5.8,-,N/A,,Overcast,270,2013-02-05 04:54:00